EW7199 Weather Reports


time (UTC)temp
F
wind
direction
speed
knots
gust
knots
rain 1hr
in
rain 24hr
in
rain mn
in
humidity
%
barometer
mb
20260906212414 86 322 1.7 2.6 0.00 0.00 0.00 42 1019.5
20260906211913 86 301 1.7 2.6 0.00 0.00 0.00 41 1019.5
20260906211414 87 347 0.9 2.6 0.00 0.00 0.00 41 1019.4
20260906210915 87 310 0.9 2.6 0.00 0.00 0.00 41 1019.4
20260906210414 86 314 0.9 2.6 0.00 0.00 0.00 41 1019.4
20260906205413 87 306 0.0 1.7 0.00 0.00 0.00 43 1019.5
20260906204913 87 306 0.9 1.7 0.00 0.00 0.00 44 1019.5
20260906204420 87 295 0.9 2.6 0.00 0.00 0.00 44 1019.5
20260906203913 87 298 1.7 2.6 0.00 0.00 0.00 44 1019.5
20260906203416 87 296 0.9 2.6 0.00 0.00 0.00 45 1019.6
20260906202914 87 237 0.9 1.7 0.00 0.00 0.00 46 1019.6
20260906201914 87 258 0.9 2.6 0.00 0.00 0.00 44 1019.6
20260906200913 86 260 0.9 2.6 0.00 0.00 0.00 46 1019.6
20260906200413 86 280 1.7 2.6 0.00 0.00 0.00 49 1019.6
20260906195915 86 265 0.9 2.6 0.00 0.00 0.00 52 1019.5
20260906195414 86 284 0.9 2.6 0.00 0.00 0.00 53 1019.5
20260906194914 86 258 0.9 2.6 0.00 0.00 0.00 51 1019.5
20260906193916 86 271 1.7 2.6 0.00 0.00 0.00 54 1019.6
20260906193413 86 250 1.7 2.6 0.00 0.00 0.00 55 1019.6
20260906191414 85 260 1.7 2.6 0.00 0.00 0.00 60 1019.6
20260906190913 85 274 1.7 2.6 0.00 0.00 0.00 59 1019.5
20260906190413 85 264 1.7 2.6 0.00 0.00 0.00 61 1019.5
20260906185914 85 266 1.7 2.6 0.00 0.00 0.00 61 1019.5
20260906185413 85 270 1.7 2.6 0.00 0.00 0.00 61 1019.5
20260906184913 85 260 1.7 2.6 0.00 0.00 0.00 60 1019.4
20260906182916 85 266 1.7 2.6 0.00 0.00 0.00 66 1019.2
20260906182416 86 267 1.7 2.6 0.00 0.00 0.00 65 1019.1
20260906181914 86 263 1.7 2.6 0.00 0.00 0.00 62 1019.1
20260906181414 86 260 1.7 2.6 0.00 0.00 0.00 63 1019.0
20260906180914 86 264 1.7 2.6 0.00 0.00 0.00 60 1019.0
20260906180413 86 270 1.7 2.6 0.00 0.00 0.00 58 1018.9
20260906175915 86 258 1.7 2.6 0.00 0.00 0.00 60 1018.8
20260906175413 86 261 1.7 2.6 0.00 0.00 0.00 61 1018.8
20260906174915 87 260 1.7 2.6 0.00 0.00 0.00 56 1018.7
20260906174415 86 259 1.7 2.6 0.00 0.00 0.00 57 1018.6
20260906173913 87 255 1.7 2.6 0.00 0.00 0.00 59 1018.6
20260906173413 87 264 1.7 2.6 0.00 0.00 0.00 57 1018.5
20260906172918 87 259 1.7 1.7 0.00 0.00 0.00 57 1018.5
20260906172416 87 262 1.7 2.6 0.00 0.00 0.00 59 1018.4
20260906171913 87 261 1.7 2.6 0.00 0.00 0.00 60 1018.4
20260906170413 88 268 1.7 2.6 0.00 0.00 0.00 55 1018.2
20260906165914 88 253 1.7 1.7 0.00 0.00 0.00 52 1018.2
20260906165414 88 253 0.0 1.7 0.00 0.00 0.00 53 1018.1
20260906164414 88 267 0.9 2.6 0.00 0.00 0.00 54 1018.1
20260906163913 89 250 1.7 2.6 0.00 0.00 0.00 52 1018.0
20260906163413 89 244 1.7 2.6 0.00 0.00 0.00 53 1018.0
20260906162913 90 269 1.7 2.6 0.00 0.00 0.00 52 1017.9
20260906162417 91 263 1.7 2.6 0.00 0.00 0.00 49 1017.9
20260906161914 91 264 0.9 1.7 0.00 0.00 0.00 48 1017.9
20260906161413 90 248 0.0 1.7 0.00 0.00 0.00 51 1017.9
20260906160913 91 274 1.7 2.6 0.00 0.00 0.00 51 1017.9
20260906160413 93 278 1.7 2.6 0.00 0.00 0.00 49 1017.8
20260906155913 96 261 0.0 1.7 0.00 0.00 0.00 38 1017.8
20260906155414 95 265 0.0 1.7 0.00 0.00 0.00 39 1017.7
20260906154918 94 261 0.0 0.9 0.00 0.00 0.00 39 1017.7
20260906154416 95 259 1.7 2.6 0.00 0.00 0.00 39 1017.7
20260906153913 95 248 0.9 1.7 0.00 0.00 0.00 38 1017.6
20260906153413 95 200 0.9 2.6 0.00 0.00 0.00 37 1017.6
20260906152913 96 214 1.7 2.6 0.00 0.00 0.00 36 1017.5
20260906152417 96 185 1.7 2.6 0.00 0.00 0.00 35 1017.5
20260906151913 96 256 0.9 1.7 0.00 0.00 0.00 35 1017.4
20260906151413 96 156 0.9 2.6 0.00 0.00 0.00 35 1017.4
20260906150414 95 229 0.9 2.6 0.00 0.00 0.00 36 1017.4
20260906145912 95 215 0.9 2.6 0.00 0.00 0.00 36 1017.4
20260906145413 94 233 1.7 2.6 0.00 0.00 0.00 36 1017.4
20260906144913 94 214 1.7 2.6 0.00 0.00 0.00 36 1017.4
20260906143915 96 157 0.9 2.6 0.00 0.00 0.00 34 1017.4
20260906142917 96 143 0.9 2.6 0.00 0.00 0.00 34 1017.5
20260906142413 96 197 0.9 2.6 0.00 0.00 0.00 35 1017.5
20260906141914 95 233 0.9 2.6 0.00 0.00 0.00 35 1017.5
20260906141413 95 227 0.9 2.6 0.00 0.00 0.00 35 1017.5
20260906140913 95 224 1.7 2.6 0.00 0.00 0.00 35 1017.5
20260906140414 94 223 0.9 2.6 0.00 0.00 0.00 35 1017.5
20260906135913 93 177 0.9 2.6 0.00 0.00 0.00 36 1017.6
20260906135413 93 213 1.7 2.6 0.00 0.00 0.00 36 1017.6
20260906134915 93 227 1.7 2.6 0.00 0.00 0.00 38 1017.6
20260906134414 93 230 1.7 2.6 0.00 0.00 0.00 38 1017.6
20260906133914 93 246 1.7 2.6 0.00 0.00 0.00 38 1017.7
20260906133415 93 225 1.7 2.6 0.00 0.00 0.00 36 1017.7
20260906132915 94 234 1.7 2.6 0.00 0.00 0.00 35 1017.7
20260906132414 94 188 1.7 2.6 0.00 0.00 0.00 35 1017.7
20260906131917 94 205 1.7 2.6 0.00 0.00 0.00 34 1017.8
20260906130913 93 225 1.7 2.6 0.00 0.00 0.00 35 1017.7
20260906124416 94 219 0.9 2.6 0.00 0.00 0.00 34 1017.8
20260906123914 93 131 2.6 2.6 0.00 0.00 0.00 34 1017.8
20260906122913 94 232 1.7 2.6 0.00 0.00 0.00 34 1017.8
20260906122412 94 220 2.6 2.6 0.00 0.00 0.00 33 1017.7
20260906121912 94 214 1.7 2.6 0.00 0.00 0.00 34 1017.8
20260906120913 93 230 1.7 2.6 0.00 0.00 0.00 34 1017.8
20260906120414 92 218 0.9 2.6 0.00 0.00 0.00 36 1017.9
20260906115912 91 236 1.7 2.6 0.00 0.00 0.00 40 1017.8
20260906115413 90 222 1.7 2.6 0.00 0.00 0.00 46 1017.9
20260906114913 90 240 2.6 2.6 0.00 0.00 0.00 50 1017.9
20260906113912 90 263 1.7 2.6 0.00 0.00 0.00 48 1018.0
20260906112914 89 253 2.6 2.6 0.00 0.00 0.00 47 1018.0
20260906112414 89 241 2.6 2.6 0.00 0.00 0.00 49 1018.0
20260906111912 88 239 2.6 2.6 0.00 0.00 0.00 50 1018.0
20260906111413 88 243 1.7 2.6 0.00 0.00 0.00 51 1018.0
20260906110913 89 239 1.7 2.6 0.00 0.00 0.00 50 1018.1
20260906110413 89 260 1.7 2.6 0.00 0.00 0.00 50 1018.0
20260906105912 89 249 1.7 2.6 0.00 0.00 0.00 48 1018.0
20260906105415 89 270 1.7 2.6 0.00 0.00 0.00 51 1018.0
20260906104915 89 252 1.7 2.6 0.00 0.00 0.00 50 1018.1
20260906103913 88 249 1.7 2.6 0.00 0.00 0.00 50 1018.2
20260906103413 88 232 1.7 2.6 0.00 0.00 0.00 49 1018.3
20260906102913 88 249 1.7 2.6 0.00 0.00 0.00 48 1018.3
20260906102415 88 256 1.7 2.6 0.00 0.00 0.00 46 1018.3
20260906101913 88 239 1.7 2.6 0.00 0.00 0.00 46 1018.3
20260906101413 87 246 1.7 2.6 0.00 0.00 0.00 45 1018.3
20260906100913 87 233 1.7 2.6 0.00 0.00 0.00 46 1018.4
20260906100412 87 234 1.7 2.6 0.00 0.00 0.00 51 1018.4
20260906095913 87 240 1.7 2.6 0.00 0.00 0.00 47 1018.4
20260906095413 86 233 1.7 2.6 0.00 0.00 0.00 51 1018.4
20260906094415 86 251 1.7 2.6 0.00 0.00 0.00 52 1018.4
20260906093912 86 280 1.7 2.6 0.00 0.00 0.00 55 1018.4
20260906093412 85 271 1.7 2.6 0.00 0.00 0.00 55 1018.5
20260906092913 85 271 1.7 2.6 0.00 0.00 0.00 57 1018.5
20260906092412 85 255 1.7 2.6 0.00 0.00 0.00 57 1018.5
20260906091913 85 265 1.7 2.6 0.00 0.00 0.00 55 1018.6
20260906091413 85 277 1.7 2.6 0.00 0.00 0.00 52 1018.6
20260906090912 85 273 1.7 2.6 0.00 0.00 0.00 49 1018.6
20260906090413 85 276 1.7 2.6 0.00 0.00 0.00 50 1018.6
20260906085912 85 238 1.7 2.6 0.00 0.00 0.00 49 1018.6
20260906085413 85 247 1.7 2.6 0.00 0.00 0.00 51 1018.6
20260906084913 85 243 1.7 2.6 0.00 0.00 0.00 53 1018.6
20260906084412 85 240 1.7 2.6 0.00 0.00 0.00 49 1018.7
20260906083912 85 245 1.7 2.6 0.00 0.00 0.00 49 1018.7
20260906083413 85 230 0.9 2.6 0.00 0.00 0.00 49 1018.7
20260906082913 85 270 1.7 2.6 0.00 0.00 0.00 47 1018.7
20260906082414 85 245 1.7 2.6 0.00 0.00 0.00 49 1018.7
20260906081913 84 242 0.9 2.6 0.00 0.00 0.00 48 1018.6
20260906081413 84 238 1.7 2.6 0.00 0.00 0.00 50 1018.6
20260906080913 84 228 0.9 1.7 0.00 0.00 0.00 53 1018.5
20260906080413 84 238 0.9 2.6 0.00 0.00 0.00 53 1018.4
20260906075913 84 240 1.7 2.6 0.00 0.00 0.00 54 1018.4
20260906075414 83 236 0.9 2.6 0.00 0.00 0.00 57 1018.4
20260906074412 83 226 0.9 1.7 0.00 0.00 0.00 59 1018.3
20260906073413 83 230 0.9 2.6 0.00 0.00 0.00 59 1018.3
20260906072914 82 258 0.9 1.7 0.00 0.00 0.00 56 1018.2
20260906071913 82 255 1.7 2.6 0.00 0.00 0.00 60 1018.1
20260906070914 81 254 0.9 2.6 0.00 0.00 0.00 63 1018.0
20260906065913 81 249 1.7 2.6 0.00 0.00 0.00 62 1017.9
20260906065412 81 266 1.7 2.6 0.00 0.00 0.00 64 1017.8
20260906064917 81 271 1.7 2.6 0.00 0.00 0.00 65 1017.8
20260906064416 81 273 1.7 2.6 0.00 0.00 0.00 63 1017.8
20260906063413 81 233 0.0 2.6 0.00 0.00 0.00 59 1017.7
20260906062913 81 227 0.0 0.0 0.00 0.00 0.00 59 1017.7
20260906061913 81 152 0.0 0.0 0.00 0.00 0.00 60 1017.7
20260906061416 81 150 0.0 0.0 0.00 0.00 0.00 60 1017.6
20260906060413 81 136 0.0 0.0 0.00 0.00 0.00 61 1017.6
20260906055913 81 136 0.0 0.0 0.00 0.00 0.00 61 1017.6
20260906055416 80 136 0.0 0.0 0.00 0.00 0.00 61 1017.6
20260906054914 80 136 0.0 0.0 0.00 0.00 0.00 61 1017.5
20260906054412 80 136 0.0 0.0 0.00 0.00 0.00 59 1017.5
20260906053913 80 136 0.0 0.0 0.00 0.00 0.00 59 1017.4
20260906053413 80 136 0.0 0.0 0.00 0.00 0.00 58 1017.4
20260906052913 80 136 0.0 0.0 0.00 0.00 0.00 57 1017.4
20260906052413 80 136 0.0 0.0 0.00 0.00 0.00 58 1017.4
20260906051912 79 136 0.0 0.0 0.00 0.00 0.00 54 1017.4
20260906051412 79 136 0.0 0.0 0.00 0.00 0.00 54 1017.3
20260906050912 79 136 0.0 0.0 0.00 0.00 0.00 54 1017.4
20260906050412 79 136 0.0 0.0 0.00 0.00 0.00 53 1017.4
20260906045913 79 137 0.0 0.0 0.00 0.00 0.00 55 1017.3
20260906045413 79 137 0.0 0.0 0.00 0.00 0.00 58 1017.3
20260906044912 78 137 0.0 0.0 0.00 0.00 0.00 59 1017.2
20260906044413 78 138 0.0 0.0 0.00 0.00 0.00 56 1017.2
20260906043912 78 137 0.0 0.0 0.00 0.00 0.00 56 1017.2
20260906043412 78 137 0.0 0.0 0.00 0.00 0.00 56 1017.2
20260906042912 78 138 0.0 0.0 0.00 0.00 0.00 56 1017.1
20260906041912 78 139 0.0 0.0 0.00 0.00 0.00 57 1017.1
20260906041412 78 139 0.0 0.0 0.00 0.00 0.00 58 1017.0
20260906040913 78 139 0.0 0.0 0.00 0.00 0.00 58 1017.0
20260906040412 78 139 0.0 0.0 0.00 0.00 0.00 58 1017.0
20260906035914 78 140 0.0 0.0 0.00 0.00 0.00 61 1017.0
20260906035412 78 140 0.0 0.0 0.00 0.00 0.00 59 1016.8
20260906034914 78 140 0.0 0.0 0.00 0.00 0.00 62 1016.7
20260906034416 78 140 0.0 0.0 0.00 0.00 0.00 58 1016.7
20260906033912 78 142 0.0 0.0 0.00 0.00 0.00 61 1016.8
20260906033412 78 142 0.0 0.0 0.00 0.00 0.00 62 1016.8
20260906032911 77 142 0.0 0.0 0.00 0.00 0.00 62 1016.7
20260906032412 77 142 0.0 0.0 0.00 0.00 0.00 61 1016.7
20260906031912 77 142 0.0 0.0 0.00 0.00 0.00 60 1016.7
20260906031412 77 142 0.0 0.0 0.00 0.00 0.00 59 1016.7
20260906030912 77 142 0.0 0.0 0.00 0.00 0.00 60 1016.7
20260906030412 77 143 0.0 0.0 0.00 0.00 0.00 58 1016.7
20260906025912 78 146 0.0 0.0 0.00 0.00 0.00 58 1016.7
20260906025413 78 147 0.0 0.0 0.00 0.00 0.00 58 1016.7
20260906024912 78 148 0.0 0.0 0.00 0.00 0.00 55 1016.7
20260906024412 78 259 0.0 0.0 0.00 0.00 0.00 55 1016.7
20260906023913 79 263 0.0 0.0 0.00 0.00 0.00 56 1016.7
20260906022912 80 263 0.0 0.0 0.00 0.00 0.00 65 1016.7
20260906022412 80 263 0.0 0.0 0.00 0.00 0.00 64 1016.8
20260906021413 80 271 0.0 0.0 0.00 0.00 0.00 63 1016.7
20260906020912 80 271 0.0 0.0 0.00 0.00 0.00 63 1016.7
20260906020412 80 272 0.0 0.0 0.00 0.00 0.00 62 1016.7
20260906015412 80 272 0.0 0.0 0.00 0.00 0.00 62 1016.7
20260906014915 80 272 0.0 0.0 0.00 0.00 0.00 62 1016.7
20260906014413 81 273 0.0 0.0 0.00 0.00 0.00 62 1016.8
20260906013912 81 274 0.0 0.0 0.00 0.00 0.00 61 1016.8
20260906013413 81 275 0.0 0.0 0.00 0.00 0.00 60 1016.8
20260906012912 81 275 0.0 0.0 0.00 0.00 0.00 60 1016.8
20260906011912 81 275 0.0 0.0 0.00 0.00 0.00 59 1016.8
20260906011411 81 291 0.0 0.0 0.00 0.00 0.00 57 1016.8
20260906010912 81 291 0.0 0.0 0.00 0.00 0.00 55 1016.8
20260906010413 82 291 0.0 0.9 0.00 0.00 0.00 54 1016.8
20260906005912 82 286 1.7 2.6 0.00 0.00 0.00 54 1016.7
20260906005412 81 279 1.7 2.6 0.00 0.00 0.00 53 1016.8
20260906004915 81 80 0.0 0.0 0.00 0.00 0.00 53 1016.8
20260906004414 80 80 0.0 0.0 0.00 0.00 0.00 51 1016.7
20260906003913 80 80 0.0 0.0 0.00 0.00 0.00 52 1016.8
20260906003412 80 80 0.0 0.0 0.00 0.00 0.00 51 1016.8
20260906001912 80 80 1.7 2.6 0.00 0.00 0.00 51 1016.8
20260906001412 80 78 0.0 0.0 0.00 0.00 0.00 51 1016.8
20260906000912 80 78 0.0 0.0 0.00 0.00 0.00 52 1016.8
20260906000412 80 78 0.0 0.0 0.00 0.00 0.00 51 1016.8
20260905235912 80 80 0.0 0.0 0.00 0.00 0.00 51 1016.8
20260905235412 80 80 0.0 0.0 0.00 0.00 0.00 52 1016.8
20260905234918 79 80 0.0 0.0 0.00 0.00 0.00 52 1016.8
20260905234414 79 80 0.0 1.7 0.00 0.00 0.00 54 1016.8
20260905233913 79 81 1.7 2.6 0.00 0.00 0.00 53 1016.9
20260905233412 80 86 1.7 1.7 0.00 0.00 0.00 53 1016.9
20260905232912 81 80 0.0 0.0 0.00 0.00 0.00 51 1016.9
20260905232412 82 288 0.0 0.0 0.00 0.00 0.00 51 1016.9
20260905231912 83 288 0.0 0.0 0.00 0.00 0.00 51 1017.0
20260905231412 83 288 0.0 0.0 0.00 0.00 0.00 51 1017.0
20260905230912 83 288 0.0 0.0 0.00 0.00 0.00 51 1017.0
20260905230412 83 288 0.0 0.0 0.00 0.00 0.00 51 1017.1
20260905225912 83 288 0.0 0.0 0.00 0.00 0.00 51 1017.1
20260905224913 83 284 0.0 0.0 0.00 0.00 0.00 50 1017.1
20260905224412 83 284 0.0 0.0 0.00 0.00 0.00 50 1017.2
20260905223912 83 284 0.0 0.0 0.00 0.00 0.00 50 1017.2
20260905222912 83 319 0.0 0.0 0.00 0.00 0.00 51 1017.2
20260905222411 83 320 0.0 0.0 0.00 0.00 0.00 52 1017.1
20260905221913 83 340 0.0 0.0 0.00 0.00 0.00 52 1017.1
20260905221413 83 85 0.0 1.7 0.00 0.00 0.00 53 1017.0
20260905220913 83 86 0.0 0.9 0.00 0.00 0.00 54 1017.0
20260905220412 83 86 0.0 0.0 0.00 0.00 0.00 54 1017.0
20260905215914 82 86 0.0 0.9 0.00 0.00 0.00 55 1017.0
20260905214416 82 88 0.9 1.7 0.00 0.00 0.00 57 1017.0
20260905213912 82 92 0.9 2.6 0.00 0.00 0.00 56 1016.9
20260905213411 82 71 0.0 1.7 0.00 0.00 0.00 57 1017.0
20260905212913 82 50 0.0 0.0 0.00 0.00 0.00 57 1017.0